RYR455 ELLX-EGSS

Flight info

Callsign RYR455
Flight time 0h 58m
Altitude 34000
Route LNO N852 TERLA L608 BUB M624 NIK DCT KOZUF DCT IMPOH DCT SASKI L608 SUMUM Y6 TOSVA
Aircraft B739/M-SDE2E3FGHIRWXY/LB1

Departure

Time 2026-05-01 11:05
Airport Luxembourg-Findel International Airport (ELLX)

Arrival

Time 2026-05-01 12:03
Airport London Stansted Airport (EGSS)
Time Latitude Longitude Altitude Speed Heading
2026-05-01 10:50 49.63351 6.21690 1232 ft 0 kts 330°
2026-05-01 10:55 49.63345 6.21695 1232 ft 2 kts 329°
2026-05-01 10:55 49.63330 6.21708 1232 ft 2 kts 330°
2026-05-01 10:55 49.63316 6.21722 1232 ft 2 kts 296°
2026-05-01 10:56 49.63313 6.21746 1231 ft 2 kts 264°
2026-05-01 10:56 49.63316 6.21770 1231 ft 1 kts 245°
2026-05-01 10:56 49.63317 6.21774 1231 ft 0 kts 242°
2026-05-01 10:59 49.63300 6.21725 1231 ft 8 kts 241°
2026-05-01 10:59 49.63259 6.21673 1230 ft 8 kts 171°
2026-05-01 10:59 49.63197 6.21726 1228 ft 11 kts 150°
2026-05-01 11:00 49.63137 6.21776 1227 ft 8 kts 168°
2026-05-01 11:00 49.63109 6.21745 1227 ft 7 kts 242°
2026-05-01 11:00 49.63068 6.21613 1227 ft 20 kts 245°
2026-05-01 11:00 49.63004 6.21407 1230 ft 21 kts 244°
2026-05-01 11:01 49.62942 6.21207 1233 ft 21 kts 244°
2026-05-01 11:01 49.62881 6.21011 1237 ft 20 kts 244°
2026-05-01 11:01 49.62821 6.20821 1246 ft 19 kts 245°
2026-05-01 11:01 49.62736 6.20664 1246 ft 19 kts 218°
2026-05-01 11:02 49.62640 6.20539 1245 ft 18 kts 228°
2026-05-01 11:02 49.62557 6.20394 1244 ft 19 kts 230°
2026-05-01 11:02 49.62477 6.20227 1231 ft 19 kts 238°
2026-05-01 11:02 49.62408 6.20042 1223 ft 21 kts 240°
2026-05-01 11:03 49.62333 6.19842 1217 ft 22 kts 240°
2026-05-01 11:03 49.62259 6.19644 1206 ft 14 kts 239°
2026-05-01 11:03 49.62206 6.19553 1200 ft 9 kts 187°
2026-05-01 11:03 49.62143 6.19591 1199 ft 10 kts 150°
2026-05-01 11:04 49.62094 6.19640 1199 ft 5 kts 129°
2026-05-01 11:04 49.62096 6.19675 1202 ft 0 kts 58°
2026-05-01 11:04 49.62166 6.19860 1213 ft 51 kts 60°
2026-05-01 11:04 49.62455 6.20637 1238 ft 114 kts 60°
2026-05-01 11:05 49.62945 6.21958 1261 ft 164 kts 64°
2026-05-01 11:05 49.63528 6.23535 1794 ft 174 kts 64°
2026-05-01 11:05 49.64168 6.25177 2487 ft 184 kts 61°
2026-05-01 11:05 49.64847 6.26929 3138 ft 198 kts 62°
2026-05-01 11:06 49.65592 6.28842 3635 ft 220 kts 67°
2026-05-01 11:06 49.66333 6.30984 4286 ft 234 kts 65°
2026-05-01 11:06 49.67169 6.33222 4880 ft 246 kts 58°
2026-05-01 11:07 49.70391 6.35443 6647 ft 280 kts
2026-05-01 11:07 49.72318 6.34750 7449 ft 291 kts 338°
2026-05-01 11:07 49.74009 6.32980 8265 ft 297 kts 324°
2026-05-01 11:07 49.75620 6.31031 9138 ft 297 kts 325°
2026-05-01 11:08 49.77253 6.29056 10028 ft 298 kts 325°
2026-05-01 11:08 49.78784 6.27198 10792 ft 299 kts 325°
2026-05-01 11:08 49.82056 6.23210 12266 ft 305 kts 325°
2026-05-01 11:09 49.83793 6.21122 12518 ft 328 kts 325°
2026-05-01 11:09 49.85664 6.18901 12713 ft 350 kts 325°
2026-05-01 11:09 49.87742 6.16740 12889 ft 369 kts 334°
2026-05-01 11:10 49.92475 6.13261 14026 ft 381 kts 339°
2026-05-01 11:10 49.94902 6.11565 14697 ft 383 kts 338°
2026-05-01 11:10 49.97344 6.09814 15268 ft 388 kts 338°
2026-05-01 11:10 49.99795 6.08014 15946 ft 390 kts 337°
2026-05-01 11:11 50.02252 6.06177 16531 ft 395 kts 337°
2026-05-01 11:11 50.04733 6.04300 17129 ft 398 kts 337°
2026-05-01 11:11 50.07235 6.02397 17727 ft 402 kts 337°
2026-05-01 11:11 50.09758 6.00478 18324 ft 405 kts 337°
2026-05-01 11:12 50.12303 5.98542 18853 ft 409 kts 337°
2026-05-01 11:12 50.14868 5.96592 19375 ft 411 kts 338°
2026-05-01 11:12 50.17489 5.94813 19943 ft 411 kts 341°
2026-05-01 11:12 50.20171 5.93232 20478 ft 412 kts 343°
2026-05-01 11:13 50.22880 5.91716 21002 ft 415 kts 343°
2026-05-01 11:13 50.25613 5.90197 21546 ft 417 kts 343°
2026-05-01 11:13 50.28351 5.88656 22083 ft 419 kts 343°
2026-05-01 11:13 50.31065 5.87107 22586 ft 422 kts 343°
2026-05-01 11:14 50.33824 5.85515 23075 ft 424 kts 342°
2026-05-01 11:14 50.36638 5.83879 23579 ft 427 kts 342°
2026-05-01 11:14 50.39427 5.82250 24043 ft 429 kts 342°
2026-05-01 11:14 50.42196 5.80629 24438 ft 432 kts 342°
2026-05-01 11:15 50.45025 5.78974 24817 ft 434 kts 342°
2026-05-01 11:15 50.47864 5.77311 25192 ft 437 kts 342°
2026-05-01 11:15 50.50721 5.75634 25590 ft 439 kts 342°
2026-05-01 11:15 50.53592 5.73949 25963 ft 442 kts 342°
2026-05-01 11:16 50.56478 5.72253 26319 ft 444 kts 342°
2026-05-01 11:16 50.59390 5.70584 26683 ft 446 kts 344°
2026-05-01 11:16 50.62368 5.69155 27064 ft 448 kts 347°
2026-05-01 11:16 50.65304 5.67469 27401 ft 455 kts 333°
2026-05-01 11:17 50.67810 5.64370 27721 ft 463 kts 314°
2026-05-01 11:17 50.69645 5.60168 28087 ft 469 kts 296°
2026-05-01 11:17 50.70745 5.55330 28550 ft 469 kts 288°
2026-05-01 11:17 50.71686 5.50403 29089 ft 468 kts 287°
2026-05-01 11:18 50.72605 5.45479 29599 ft 467 kts 287°
2026-05-01 11:18 50.73531 5.40575 30092 ft 466 kts 288°
2026-05-01 11:18 50.74477 5.35670 30297 ft 468 kts 288°
2026-05-01 11:18 50.75442 5.30744 30296 ft 470 kts 288°
2026-05-01 11:19 50.76409 5.25847 30502 ft 463 kts 288°
2026-05-01 11:19 50.77360 5.21029 30929 ft 457 kts 288°
2026-05-01 11:19 50.78301 5.16252 31319 ft 453 kts 288°
2026-05-01 11:19 50.79233 5.11505 31649 ft 450 kts 288°
2026-05-01 11:20 50.80156 5.06788 31969 ft 448 kts 288°
2026-05-01 11:20 50.81069 5.02092 32296 ft 446 kts 287°
2026-05-01 11:20 50.81966 4.97417 32574 ft 444 kts 287°
2026-05-01 11:20 50.82846 4.92794 32829 ft 444 kts 287°
2026-05-01 11:21 50.83732 4.88128 33090 ft 443 kts 287°
2026-05-01 11:21 50.84617 4.83461 33349 ft 442 kts 287°
2026-05-01 11:21 50.85499 4.78798 33614 ft 441 kts 287°
2026-05-01 11:21 50.86378 4.74150 33882 ft 440 kts 287°
2026-05-01 11:22 50.87254 4.69510 34154 ft 439 kts 287°
2026-05-01 11:22 50.88127 4.64873 34270 ft 442 kts 286°
2026-05-01 11:22 50.90288 4.55668 34264 ft 451 kts 301°
2026-05-01 11:23 50.94292 4.47995 34267 ft 456 kts 321°
2026-05-01 11:23 50.99181 4.41592 34256 ft 456 kts 322°
2026-05-01 11:24 51.04077 4.35174 34263 ft 456 kts 321°
2026-05-01 11:25 51.11345 4.25386 34260 ft 456 kts 320°
2026-05-01 11:25 51.17975 4.14658 34252 ft 453 kts 302°
2026-05-01 11:26 51.22600 4.01609 34247 ft 451 kts 299°
2026-05-01 11:27 51.25671 3.92878 34245 ft 451 kts 299°
2026-05-01 11:27 51.28788 3.84133 34252 ft 456 kts 299°
2026-05-01 11:28 51.31932 3.75309 34244 ft 456 kts 299°
2026-05-01 11:28 51.35003 3.66476 34229 ft 452 kts 295°
2026-05-01 11:29 51.36975 3.57003 34241 ft 448 kts 284°
2026-05-01 11:29 51.37780 3.52187 34238 ft 449 kts 284°
2026-05-01 11:30 51.40253 3.37569 34241 ft 455 kts 284°
2026-05-01 11:30 51.41941 3.27843 34232 ft 452 kts 284°
2026-05-01 11:31 51.43618 3.18163 34231 ft 449 kts 284°
2026-05-01 11:31 51.45264 3.08572 34240 ft 449 kts 283°
2026-05-01 11:32 51.46878 2.98819 34237 ft 455 kts 283°
2026-05-01 11:32 51.48483 2.88998 34244 ft 458 kts 283°
2026-05-01 11:33 51.50110 2.79018 34244 ft 467 kts 283°
2026-05-01 11:33 51.51750 2.68933 33935 ft 461 kts 283°
2026-05-01 11:33 51.52549 2.64006 33325 ft 452 kts 283°
2026-05-01 11:34 51.53336 2.59132 32487 ft 449 kts 282°
2026-05-01 11:34 51.54118 2.54268 31486 ft 451 kts 282°
2026-05-01 11:34 51.54921 2.49392 30617 ft 451 kts 285°
2026-05-01 11:34 51.55930 2.44635 29833 ft 447 kts 288°
2026-05-01 11:35 51.57023 2.40001 29122 ft 441 kts 289°
2026-05-01 11:35 51.58101 2.35423 28411 ft 435 kts 288°
2026-05-01 11:35 51.59150 2.30887 27670 ft 431 kts 288°
2026-05-01 11:35 51.60174 2.26390 26941 ft 427 kts 288°
2026-05-01 11:36 51.61187 2.21924 26246 ft 423 kts 288°
2026-05-01 11:36 51.62188 2.17504 25571 ft 419 kts 288°
2026-05-01 11:36 51.63473 2.13317 24876 ft 419 kts 303°
2026-05-01 11:36 51.65376 2.09792 24228 ft 417 kts 318°
2026-05-01 11:37 51.66886 2.07915 23815 ft 414 kts 328°
2026-05-01 11:37 51.70269 2.05006 22887 ft 409 kts 333°
2026-05-01 11:37 51.71945 2.03641 22440 ft 406 kts 333°
2026-05-01 11:37 51.74450 2.01591 21770 ft 402 kts 333°
2026-05-01 11:38 51.76932 1.99526 21151 ft 400 kts 332°
2026-05-01 11:38 51.79384 1.97455 20577 ft 396 kts 332°
2026-05-01 11:38 51.81800 1.95394 19983 ft 391 kts 332°
2026-05-01 11:38 51.84198 1.93341 19375 ft 389 kts 332°
2026-05-01 11:39 51.86575 1.91303 18863 ft 385 kts 332°
2026-05-01 11:39 51.88881 1.89119 18354 ft 384 kts 320°
2026-05-01 11:39 51.90677 1.86005 17968 ft 375 kts 300°
2026-05-01 11:39 51.91964 1.82370 17652 ft 370 kts 296°
2026-05-01 11:40 51.93164 1.78674 17322 ft 372 kts 295°
2026-05-01 11:40 51.94354 1.74942 16992 ft 373 kts 295°
2026-05-01 11:40 51.95560 1.71174 16654 ft 371 kts 295°
2026-05-01 11:40 51.96735 1.67535 16346 ft 368 kts 295°
2026-05-01 11:41 51.97926 1.63873 16002 ft 366 kts 295°
2026-05-01 11:41 51.99113 1.60236 15686 ft 364 kts 295°
2026-05-01 11:41 52.00298 1.56612 15368 ft 363 kts 295°
2026-05-01 11:41 52.01479 1.52998 15055 ft 362 kts 295°
2026-05-01 11:42 52.02656 1.49397 14737 ft 361 kts 295°
2026-05-01 11:42 52.03828 1.45804 14420 ft 359 kts 295°
2026-05-01 11:42 52.04994 1.42223 14099 ft 357 kts 295°
2026-05-01 11:42 52.06150 1.38663 13769 ft 356 kts 295°
2026-05-01 11:43 52.07304 1.35112 13433 ft 354 kts 295°
2026-05-01 11:43 52.08448 1.31592 13109 ft 351 kts 295°
2026-05-01 11:43 52.09584 1.28086 12789 ft 348 kts 295°
2026-05-01 11:44 52.11426 1.21215 12317 ft 318 kts 273°
2026-05-01 11:44 52.11357 1.17729 12014 ft 302 kts 253°
2026-05-01 11:44 52.10849 1.14440 11795 ft 298 kts 251°
2026-05-01 11:44 52.10301 1.11207 11584 ft 296 kts 250°
2026-05-01 11:45 52.09753 1.08014 11373 ft 297 kts 250°
2026-05-01 11:45 52.09196 1.04771 11160 ft 297 kts 251°
2026-05-01 11:45 52.08646 1.01540 10949 ft 296 kts 251°
2026-05-01 11:45 52.08104 0.98332 10733 ft 294 kts 251°
2026-05-01 11:46 52.07566 0.95140 10528 ft 292 kts 251°
2026-05-01 11:46 52.07032 0.91972 10320 ft 289 kts 251°
2026-05-01 11:46 52.06506 0.88842 10121 ft 285 kts 251°
2026-05-01 11:46 52.06002 0.85752 9887 ft 281 kts 253°
2026-05-01 11:47 52.05607 0.82657 9667 ft 278 kts 255°
2026-05-01 11:47 52.05249 0.79578 9409 ft 276 kts 256°
2026-05-01 11:47 52.04893 0.76521 9095 ft 275 kts 256°
2026-05-01 11:47 52.04568 0.73445 8660 ft 280 kts 259°
2026-05-01 11:48 52.04347 0.70242 8270 ft 284 kts 261°
2026-05-01 11:48 52.04161 0.67119 8251 ft 272 kts 261°
2026-05-01 11:48 52.03992 0.64107 8241 ft 265 kts 261°
2026-05-01 11:48 52.03828 0.61124 8205 ft 267 kts 261°
2026-05-01 11:49 52.03658 0.58070 7896 ft 273 kts 261°
2026-05-01 11:49 52.03482 0.54994 7601 ft 274 kts 261°
2026-05-01 11:49 52.03307 0.51924 7314 ft 273 kts 261°
2026-05-01 11:49 52.03131 0.48865 7030 ft 272 kts 261°
2026-05-01 11:50 52.02954 0.45809 6737 ft 272 kts 261°
2026-05-01 11:50 52.02774 0.42752 6443 ft 271 kts 261°
2026-05-01 11:50 52.02597 0.39749 6138 ft 265 kts 261°
2026-05-01 11:50 52.02428 0.36815 6019 ft 260 kts 261°
2026-05-01 11:51 52.02255 0.33849 6006 ft 264 kts 261°
2026-05-01 11:51 52.02078 0.30884 5974 ft 263 kts 261°
2026-05-01 11:51 52.01904 0.27937 5974 ft 262 kts 261°
2026-05-01 11:51 52.01732 0.25023 5991 ft 257 kts 261°
2026-05-01 11:52 52.01529 0.22152 5985 ft 255 kts 252°
2026-05-01 11:52 52.00728 0.19655 5932 ft 250 kts 227°
2026-05-01 11:52 51.99499 0.17604 5649 ft 255 kts 222°
2026-05-01 11:52 51.98220 0.15639 5411 ft 251 kts 221°
2026-05-01 11:53 51.96956 0.13718 5152 ft 246 kts 221°
2026-05-01 11:53 51.95723 0.11860 4885 ft 238 kts 220°
2026-05-01 11:53 51.94528 0.10049 4637 ft 234 kts 221°
2026-05-01 11:53 51.93339 0.08241 4389 ft 235 kts 221°
2026-05-01 11:54 51.92147 0.06436 4184 ft 233 kts 221°
2026-05-01 11:54 51.90989 0.04689 4031 ft 219 kts 221°
2026-05-01 11:54 51.89909 0.03039 4017 ft 215 kts 221°
2026-05-01 11:54 51.88818 0.01374 3963 ft 209 kts 220°
2026-05-01 11:55 51.87798 -0.00208 3959 ft 203 kts 222°
2026-05-01 11:55 51.86793 -0.01780 3959 ft 197 kts 221°
2026-05-01 11:55 51.85804 -0.03270 4005 ft 198 kts 222°
2026-05-01 11:55 51.84778 -0.04799 3986 ft 200 kts 221°
2026-05-01 11:56 51.83756 -0.06328 3985 ft 200 kts 221°
2026-05-01 11:56 51.82754 -0.07840 3961 ft 191 kts 221°
2026-05-01 11:56 51.81814 -0.09299 3943 ft 184 kts 221°
2026-05-01 11:56 51.80893 -0.10672 3944 ft 180 kts 216°
2026-05-01 11:57 51.79746 -0.11357 4009 ft 183 kts 179°
2026-05-01 11:57 51.78526 -0.10677 3830 ft 194 kts 143°
2026-05-01 11:57 51.77627 -0.09035 3668 ft 196 kts 130°
2026-05-01 11:57 51.76825 -0.07326 3456 ft 189 kts 130°
2026-05-01 11:58 51.76002 -0.05605 3306 ft 196 kts 131°
2026-05-01 11:58 51.75429 -0.03652 3036 ft 194 kts 97°
2026-05-01 11:58 51.75897 0.00501 2732 ft 187 kts 82°
2026-05-01 11:59 51.76197 0.02546 2515 ft 185 kts 79°
2026-05-01 11:59 51.76514 0.04616 2485 ft 191 kts 78°
2026-05-01 11:59 51.77180 0.06383 2481 ft 185 kts 47°
2026-05-01 12:00 51.78987 0.09106 2434 ft 175 kts 47°
2026-05-01 12:00 51.79840 0.10403 2457 ft 169 kts 47°
2026-05-01 12:00 51.81575 0.13027 2049 ft 162 kts 47°
2026-05-01 12:01 51.82386 0.14260 1808 ft 157 kts 47°
2026-05-01 12:01 51.83154 0.15409 1613 ft 145 kts 47°
2026-05-01 12:01 51.83883 0.16513 1435 ft 145 kts 46°
2026-05-01 12:01 51.84628 0.17635 1221 ft 148 kts 49°
2026-05-01 12:02 51.85385 0.18768 1064 ft 148 kts 46°
2026-05-01 12:02 51.86107 0.19865 851 ft 143 kts 46°
2026-05-01 12:02 51.86821 0.20927 621 ft 136 kts 48°
2026-05-01 12:02 51.87503 0.21975 411 ft 137 kts 48°
2026-05-01 12:03 51.88172 0.22981 335 ft 120 kts 46°
2026-05-01 12:03 51.88668 0.23728 337 ft 63 kts 43°
2026-05-01 12:03 51.88949 0.24148 340 ft 44 kts 43°
2026-05-01 12:03 51.89077 0.24440 340 ft 13 kts 66°
2026-05-01 12:04 51.89112 0.24575 337 ft 13 kts 68°
2026-05-01 12:04 51.89144 0.24705 337 ft 9 kts 68°
2026-05-01 12:04 51.89152 0.24740 336 ft 2 kts 68°
2026-05-01 12:04 51.89153 0.24741 336 ft 0 kts 68°
2026-05-01 12:05 51.89164 0.24851 340 ft 6 kts 109°
2026-05-01 12:05 51.89162 0.24857 341 ft 5 kts 121°
2026-05-01 12:06 51.89155 0.24935 347 ft 7 kts 69°
2026-05-01 12:06 51.89189 0.24995 351 ft 7 kts 45°
2026-05-01 12:06 51.89220 0.25055 347 ft 7 kts 55°
2026-05-01 12:06 51.89243 0.25122 350 ft 7 kts 71°
2026-05-01 12:07 51.89225 0.25190 353 ft 7 kts 129°
2026-05-01 12:07 51.89194 0.25246 352 ft 7 kts 132°
2026-05-01 12:07 51.89163 0.25300 346 ft 6 kts 134°
2026-05-01 12:07 51.89130 0.25357 347 ft 9 kts 133°
2026-05-01 12:08 51.89086 0.25435 346 ft 9 kts 133°
2026-05-01 12:08 51.89045 0.25506 350 ft 8 kts 133°
2026-05-01 12:08 51.89005 0.25574 355 ft 8 kts 133°
2026-05-01 12:08 51.88986 0.25605 353 ft 2 kts 140°
2026-05-01 12:09 51.88962 0.25597 350 ft 5 kts 211°
2026-05-01 12:09 51.88938 0.25565 346 ft 1 kts 221°
2026-05-01 12:09 51.88927 0.25549 352 ft 0 kts 222°